Wind_Speed
22 22 21 19 19 18 18 19 19 19 18 17 17 17 18 18 17 16 17 17 18 18 18 19 20 20 20 18 17 16 16 18 21 19 17 18 18 17 15 15 15 15
22 21 19 19 19 19 19 20 19 19 17 16 16 17 18 18 17 17 17 17 16 16 18 20 20 20 21 19 17 17 19 21 20 18 18 18 16 15 14 14 15 15
21 20 19 18 18 19 20 20 19 18 17 16 16 17 17 16 17 17 16 16 14 13 17 21 19 19 20 19 18 19 20 20 18 17 17 16 14 13 14 15 15 15
20 18 18 18 18 19 19 19 18 16 15 15 16 16 15 15 16 16 15 16 14 13 16 19 17 16 18 18 18 18 18 18 18 18 16 13 13 14 15 15 15 14
18 17 17 17 18 18 19 18 16 14 14 15 16 15 13 13 14 15 15 15 15 15 15 15 15 16 17 18 17 16 17 18 18 16 14 12 13 14 15 14 13 14
16 16 16 17 18 19 18 17 14 13 14 15 14 12 10 10 11 12 13 14 15 14 13 13 13 14 16 15 14 15 16 16 15 13 12 12 14 14 13 13 13 14
15 16 16 17 18 18 17 14 12 12 13 12 11 10 9 10 10 9 9 10 11 10 9 10 10 11 13 12 13 16 15 13 13 12 13 13 13 12 12 12 14 15
15 16 17 17 18 18 15 12 11 11 11 10 10 9 9 10 10 9 8 7 8 9 10 11 11 11 12 12 14 15 14 13 13 13 13 12 11 11 12 13 14 15
15 16 17 17 17 16 13 12 11 11 11 10 10 9 9 9 9 8 8 8 8 9 11 11 12 12 12 12 13 13 13 12 12 12 11 11 11 11 12 13 14 14
16 17 17 17 17 15 13 12 12 12 11 11 10 9 8 8 7 6 6 7 7 7 8 8 9 10 10 11 12 11 11 10 11 11 11 10 11 12 13 14 15 16
17 17 16 16 16 14 13 13 12 11 11 10 9 7 7 6 5 5 5 5 6 7 7 7 7 8 9 10 10 10 10 10 11 11 11 11 12 13 15 16 17 18
17 16 16 16 15 14 14 13 12 11 10 9 8 7 7 6 6 6 6 6 7 7 7 7 7 8 9 10 9 9 10 11 11 11 11 12 14 16 17 18 19 19
17 17 16 16 15 14 14 13 11 10 10 9 8 7 7 7 7 7 7 6 6 7 6 6 8 9 9 10 9 10 11 12 11 11 12 14 16 18 18 19 19 20
17 17 16 16 15 15 14 12 11 10 10 9 8 8 8 8 8 8 7 6 5 5 5 6 7 8 9 9 10 11 12 12 12 13 14 16 18 19 19 19 20 21
18 17 17 17 16 15 14 13 11 10 10 9 9 9 8 8 8 8 7 6 5 5 6 7 8 8 9 10 11 12 12 13 13 14 16 17 19 20 20 20 21 22
18 17 17 17 17 16 15 14 12 11 10 10 10 9 9 9 9 9 9 7 7 7 8 8 9 10 10 11 12 13 13 14 15 16 17 19 21 21 21 22 23 24
18 17 18 18 17 16 15 15 14 13 12 11 11 10 10 10 10 11 11 10 9 9 10 11 11 12 12 13 14 15 15 16 17 18 20 22 23 23 23 23 24 25
18 17 18 18 18 17 16 16 15 15 14 13 13 13 12 12 12 12 13 13 12 12 13 14 14 15 15 16 17 17 18 18 19 21 22 24 25 25 25 25 26 27
18 18 18 19 18 17 17 16 17 16 16 15 15 15 14 14 14 15 15 15 15 15 16 17 17 18 18 19 20 20 20 21 22 23 25 27 28 28 28 28 29 30
18 18 18 19 18 18 17 17 18 17 17 17 17 17 17 17 17 17 17 17 17 18 19 20 20 20 20 21 22 22 22 23 24 25 27 29 30 30 30 31 33 33
18 18 19 19 19 18 18 18 18 18 17 18 18 18 18 19 19 19 19 19 19 20 21 22 22 22 23 24 25 25 25 25 26 27 29 31 32 33 33 34 35 35
19 18 19 19 19 18 18 18 18 18 18 18 18 19 20 20 20 21 21 21 21 21 22 24 25 25 26 27 28 28 28 28 29 30 32 34 35 34 32 33 34 35
20 19 19 19 19 18 18 18 18 19 19 19 19 20 20 21 22 22 22 23 23 23 25 26 27 27 28 30 31 31 30 30 30 31 32 33 32 31 30 31 33 34
22 21 20 20 19 18 19 19 19 20 20 20 21 21 22 23 23 23 24 24 25 26 27 28 29 30 31 31 31 31 31 31 30 29 28 29 28 29 30 32 33 34
24 22 21 20 19 19 19 20 21 21 22 22 22 23 24 25 25 25 26 26 27 27 28 29 31 32 31 30 30 32 31 29 27 27 27 27 28 28 29 31 33 34
21 21 20 20 20 20 20 21 22 22 23 23 24 25 26 27 27 27 27 28 28 29 30 31 31 30 30 30 31 32 31 28 27 28 28 28 28 28 29 31 34 36
Wind_Direction
275 279 282 282 281 282 283 285 288 290 290 288 284 281 278 279 281 280 278 273 270 269 264 258 255 255 256 254 244 239 241 244 244 244 251 257 255 249 244 243 248 255
276 278 279 279 280 280 281 282 286 288 288 284 281 280 279 281 282 280 279 276 272 271 267 260 255 254 254 250 239 238 246 247 242 243 250 250 244 239 240 244 251 258
275 276 276 277 278 280 280 281 285 285 282 280 279 280 283 285 283 281 276 273 271 265 260 260 258 253 250 246 240 242 246 243 239 243 245 241 236 236 241 246 253 262
271 272 274 275 275 277 279 280 282 282 277 277 279 282 285 285 282 279 272 268 266 257 252 256 257 250 242 239 241 242 239 237 238 240 237 232 232 236 241 248 257 267
267 270 272 273 273 273 275 277 278 276 274 277 281 284 286 284 281 276 269 266 264 259 255 255 253 247 240 235 235 235 237 242 240 233 226 225 230 235 242 253 264 273
265 267 268 268 269 271 273 274 271 271 273 276 281 284 281 281 283 278 267 261 260 256 251 249 245 239 232 228 230 238 244 243 233 221 218 222 228 237 247 259 269 275
260 261 261 263 266 268 270 270 267 266 269 273 280 283 276 273 279 281 270 254 248 243 236 235 229 222 223 227 238 243 235 222 214 214 217 222 230 242 253 263 270 275
254 253 255 258 262 265 266 263 260 259 261 269 281 284 278 274 274 275 271 256 243 237 233 231 226 227 234 239 240 233 215 204 207 213 218 227 238 248 258 265 271 276
247 247 250 254 258 260 257 252 252 255 260 272 283 284 280 277 274 270 268 262 251 243 240 236 230 230 231 227 220 213 203 202 210 216 225 235 244 252 260 266 272 280
242 243 247 250 253 252 248 245 250 258 268 278 284 283 280 277 274 270 267 262 254 247 241 233 222 214 210 206 205 204 204 209 217 225 233 241 248 256 263 269 278 286
240 242 245 248 248 245 242 244 253 264 275 281 283 281 277 276 277 276 271 265 256 249 239 224 207 198 198 202 205 207 210 218 225 233 241 248 256 262 268 275 282 288
238 241 244 245 242 239 239 246 256 267 276 279 276 270 271 276 281 279 273 267 257 247 236 219 202 198 204 211 213 215 222 231 238 244 250 257 262 267 272 278 283 288
237 239 242 242 239 236 239 246 255 265 273 273 265 260 265 274 280 276 269 265 259 250 239 223 213 213 220 225 227 230 238 245 250 253 258 262 266 271 276 281 287 291
235 237 238 238 237 235 237 242 250 260 266 266 260 258 265 274 280 276 269 267 270 267 256 243 236 236 239 241 243 247 252 257 260 262 265 268 273 278 283 287 290 292
232 233 235 235 234 233 234 237 245 254 260 263 262 262 267 275 281 280 277 279 281 279 272 266 260 257 256 257 258 260 263 265 267 270 273 277 280 283 287 290 292 292
229 230 232 233 233 232 232 235 240 247 254 260 264 268 272 277 280 282 285 289 287 283 281 277 274 270 269 270 271 271 271 272 274 278 282 283 284 287 290 292 292 294
227 228 231 233 234 233 234 235 239 243 248 255 261 267 271 275 277 280 283 285 285 285 285 284 283 281 280 282 283 281 281 281 283 285 286 286 286 289 292 293 293 293
226 227 231 234 235 235 236 238 240 243 245 250 255 260 266 270 272 275 277 278 280 280 282 284 285 285 285 286 287 287 287 287 287 289 289 289 290 292 294 294 292 291
224 226 230 234 235 236 238 240 243 245 247 250 254 257 261 264 267 270 273 276 277 276 278 280 281 283 285 286 287 288 289 290 290 291 291 291 293 295 296 294 292 291
223 225 230 234 236 237 240 243 246 249 252 254 256 258 260 262 264 267 270 271 272 273 275 277 280 283 285 286 288 289 290 291 291 291 291 291 293 294 294 293 292 291
222 224 229 234 236 238 242 246 249 253 255 257 259 261 263 264 264 266 268 269 271 273 275 277 280 283 285 286 288 289 291 291 290 289 288 288 290 291 292 292 292 291
222 224 228 233 236 239 243 247 250 254 256 259 262 264 265 266 267 267 268 269 272 273 275 277 280 283 285 287 288 290 291 290 289 288 287 287 288 288 287 288 290 291
224 225 228 233 236 239 242 246 249 253 256 259 262 264 266 266 267 267 268 269 271 272 275 277 280 283 286 288 289 290 290 289 288 289 291 292 290 285 282 283 286 289
226 227 229 233 236 239 242 246 249 252 254 258 261 263 265 265 265 265 266 268 270 272 275 278 281 284 287 288 288 289 288 288 288 290 292 294 290 281 277 280 285 289
227 228 230 233 236 240 243 247 251 254 257 259 261 262 263 263 263 264 264 266 269 271 274 277 281 283 283 284 286 288 288 289 288 287 289 290 287 281 276 278 282 286
226 227 230 233 237 241 245 249 253 257 260 261 261 261 262 262 262 262 263 265 267 270 273 276 278 279 279 282 286 287 287 287 286 285 285 285 284 282 279 277 278 280
Height
5812 5812 5812 5812 5811 5811 5810 5810 5809 5809 5808 5808 5807 5806 5805 5804 5804 5803 5803 5803 5802 5802 5803 5803 5804 5804 5804 5804 5804 5804 5805 5805 5805 5806 5806 5806 5806 5806 5806 5806 5807 5807
5809 5809 5809 5809 5808 5808 5808 5807 5807 5806 5806 5805 5804 5803 5802 5802 5801 5800 5800 5800 5800 5800 5800 5800 5800 5801 5801 5801 5801 5802 5802 5802 5802 5803 5804 5804 5804 5804 5804 5805 5805 5805
5807 5806 5806 5806 5806 5805 5805 5805 5804 5804 5803 5803 5802 5801 5800 5799 5798 5797 5797 5797 5797 5799 5798 5797 5797 5797 5798 5798 5799 5799 5799 5799 5800 5801 5801 5801 5801 5802 5803 5803 5804 5804
5804 5804 5803 5803 5803 5803 5803 5802 5802 5801 5801 5800 5799 5798 5797 5797 5795 5795 5795 5795 5795 5796 5796 5794 5794 5794 5795 5795 5796 5796 5797 5797 5798 5798 5799 5799 5799 5800 5801 5802 5802 5802
5802 5801 5801 5801 5801 5801 5800 5800 5800 5799 5799 5798 5797 5796 5795 5794 5793 5792 5792 5792 5792 5792 5792 5791 5791 5791 5792 5793 5793 5794 5795 5795 5795 5796 5796 5797 5798 5799 5800 5800 5800 5800
5799 5799 5798 5798 5798 5798 5798 5798 5798 5797 5796 5795 5795 5794 5793 5792 5791 5790 5790 5790 5790 5789 5789 5789 5789 5789 5790 5791 5791 5792 5793 5793 5793 5794 5795 5795 5796 5797 5798 5798 5798 5798
5797 5796 5796 5796 5796 5796 5796 5796 5795 5795 5794 5794 5793 5792 5791 5791 5790 5789 5789 5788 5788 5787 5787 5787 5787 5788 5789 5789 5789 5790 5791 5791 5792 5792 5793 5794 5795 5795 5796 5796 5796 5795
5794 5794 5794 5794 5794 5794 5794 5794 5793 5793 5792 5792 5791 5791 5790 5789 5789 5788 5788 5787 5787 5786 5786 5786 5786 5787 5787 5787 5788 5788 5789 5789 5790 5791 5792 5793 5793 5794 5794 5794 5794 5793
5792 5791 5792 5792 5792 5792 5792 5792 5791 5791 5791 5790 5790 5789 5789 5788 5788 5787 5787 5786 5786 5785 5785 5785 5785 5785 5785 5786 5787 5787 5788 5789 5790 5790 5791 5791 5792 5792 5792 5792 5791 5791
5789 5789 5790 5790 5790 5790 5790 5790 5789 5789 5789 5789 5789 5788 5788 5787 5787 5786 5786 5786 5785 5785 5784 5784 5784 5784 5785 5786 5786 5787 5788 5788 5789 5789 5789 5790 5790 5790 5790 5790 5789 5788
5787 5787 5788 5788 5788 5788 5788 5788 5788 5788 5788 5787 5787 5787 5787 5786 5786 5786 5785 5785 5785 5784 5784 5784 5784 5784 5784 5785 5786 5786 5787 5787 5788 5788 5788 5788 5788 5788 5788 5787 5787 5786
5785 5785 5785 5786 5786 5786 5786 5786 5786 5786 5786 5786 5786 5786 5786 5786 5785 5785 5785 5785 5784 5784 5783 5783 5783 5783 5784 5785 5785 5786 5786 5786 5786 5786 5786 5786 5786 5786 5786 5785 5785 5784
5783 5783 5783 5784 5784 5785 5785 5785 5785 5785 5785 5785 5785 5785 5785 5785 5784 5784 5784 5784 5783 5783 5782 5782 5783 5783 5784 5784 5784 5784 5785 5785 5785 5785 5785 5785 5784 5784 5783 5783 5782 5781
5781 5781 5782 5782 5783 5783 5783 5783 5783 5783 5783 5784 5784 5784 5784 5784 5784 5783 5783 5783 5782 5782 5781 5781 5782 5782 5782 5782 5783 5783 5783 5783 5783 5783 5783 5782 5781 5781 5780 5780 5779 5778
5779 5779 5780 5780 5781 5781 5781 5782 5782 5782 5782 5782 5782 5782 5782 5783 5783 5782 5782 5781 5781 5780 5780 5780 5781 5781 5781 5781 5781 5781 5782 5782 5782 5781 5780 5779 5778 5778 5777 5777 5776 5775
5777 5777 5778 5778 5779 5779 5780 5780 5780 5781 5781 5781 5781 5781 5781 5781 5781 5781 5781 5780 5779 5779 5779 5779 5779 5779 5779 5779 5779 5780 5780 5780 5779 5779 5778 5776 5775 5775 5775 5774 5773 5771
5775 5775 5776 5776 5777 5777 5778 5778 5779 5779 5780 5780 5780 5780 5780 5780 5780 5780 5779 5779 5778 5778 5778 5778 5778 5778 5778 5778 5777 5778 5778 5777 5777 5776 5775 5773 5772 5772 5772 5771 5770 5768
5772 5773 5774 5774 5775 5776 5776 5777 5777 5777 5778 5778 5778 5778 5778 5779 5778 5778 5778 5777 5777 5777 5776 5776 5776 5776 5776 5776 5775 5775 5775 5775 5774 5773 5772 5770 5770 5769 5769 5768 5766 5765
5770 5771 5772 5772 5773 5774 5774 5775 5775 5775 5775 5776 5776 5776 5777 5777 5777 5777 5776 5776 5775 5775 5774 5774 5774 5774 5774 5773 5773 5773 5772 5772 5771 5770 5769 5767 5767 5766 5766 5764 5763 5761
5768 5769 5770 5770 5771 5772 5772 5773 5773 5773 5774 5774 5774 5774 5775 5775 5775 5774 5774 5774 5773 5773 5772 5772 5772 5771 5771 5771 5770 5770 5770 5769 5768 5768 5766 5764 5763 5763 5762 5761 5759 5758
5766 5767 5768 5768 5769 5770 5770 5770 5771 5772 5772 5772 5772 5772 5772 5772 5772 5772 5772 5771 5771 5770 5770 5769 5769 5769 5769 5768 5767 5767 5767 5766 5765 5764 5763 5761 5760 5759 5758 5757 5755 5754
5764 5765 5766 5766 5767 5768 5768 5769 5769 5769 5769 5769 5770 5770 5769 5769 5769 5769 5769 5768 5768 5768 5767 5767 5766 5766 5766 5765 5764 5764 5763 5763 5762 5760 5759 5757 5756 5755 5755 5753 5751 5750
5762 5763 5764 5764 5765 5766 5766 5766 5767 5767 5767 5767 5767 5767 5767 5766 5766 5766 5766 5766 5765 5765 5764 5764 5763 5763 5763 5762 5761 5760 5759 5759 5758 5756 5755 5753 5752 5751 5751 5750 5748 5746
5759 5760 5761 5762 5763 5763 5764 5764 5764 5764 5764 5764 5764 5764 5764 5763 5763 5763 5763 5762 5762 5762 5761 5761 5760 5760 5759 5758 5757 5756 5755 5755 5754 5753 5751 5750 5748 5747 5747 5746 5744 5743
5757 5758 5759 5760 5760 5761 5761 5761 5761 5761 5761 5762 5762 5761 5761 5760 5760 5760 5760 5759 5759 5759 5758 5758 5757 5756 5756 5755 5753 5752 5751 5751 5750 5749 5748 5746 5745 5743 5742 5741 5740 5739
5754 5755 5756 5757 5757 5758 5759 5759 5759 5759 5759 5759 5758 5758 5758 5757 5757 5757 5756 5756 5755 5755 5755 5754 5753 5753 5752 5751 5750 5748 5747 5746 5746 5745 5744 5743 5741 5740 5739 5737 5735 5733